When you browse on this site, cookies collect data to enhance your experience and personalize the content and advertising you see.
Visit our Privacy Policy to learn more. By continuing to use the site, you agree to this use of cookies and data.
  • In France
  • List of Countries
  • For 7 days
  • Water Temperature
  • Satellite Maps
  • Weather Map
  • Weather Widgets
  • user-avatar
    Login

    Hourly Weather Abidzhan

    Today, 17 November, Saturday

    Time Temperature Precipitation Wind Pressure Humidity
    00:00 +27°C° 0 mm 2 mps 755 mmHg 92%
    01:00 +27°C° 0.7 mm 2 mps 755 mmHg 93%
    02:00 +27°C° 0.7 mm 2 mps 755 mmHg 94%
    03:00 +26°C° 0.7 mm 2 mps 754 mmHg 94%
    04:00 +26°C° 0.2 mm 2 mps 755 mmHg 95%
    05:00 +26°C° 0.2 mm 2 mps 755 mmHg 95%
    06:00 +26°C° 0 mm 2 mps 755 mmHg 95%
    07:00 +28°C° 0.1 mm 2 mps 755 mmHg 87%
    08:00 +29°C° 0.1 mm 2 mps 755 mmHg 80%
    09:00 +31°C° 0.1 mm 2 mps 756 mmHg 72%
    10:00 +32°C° 0.2 mm 2 mps 755 mmHg 68%
    11:00 +34°C° 0.2 mm 2 mps 755 mmHg 64%
    12:00 +34°C° 0.2 mm 3 mps 755 mmHg 60%
    13:00 +34°C° 0.2 mm 3 mps 754 mmHg 60%
    14:00 +34°C° 0.2 mm 3 mps 754 mmHg 61%
    15:00 +34°C° 0.2 mm 3 mps 754 mmHg 61%
    16:00 +33°C° 0 mm 3 mps 754 mmHg 67%
    17:00 +30°C° 0 mm 3 mps 754 mmHg 73%
    18:00 +29°C° 0 mm 3 mps 754 mmHg 79%
    19:00 +29°C° 0 mm 2 mps 755 mmHg 82%
    20:00 +28°C° 0 mm 2 mps 755 mmHg 85%
    21:00 +27°C° 0 mm 2 mps 756 mmHg 87%
    22:00 +27°C° 0 mm 2 mps 756 mmHg 88%
    23:00 +27°C° 0 mm 2 mps 756 mmHg 89%

    Tomorrow, 18 November, Sunday

    Time Temperature Precipitation Wind Pressure Humidity
    00:00 +27°C° 0 mm 2 mps 755 mmHg 90%
    01:00 +27°C° 0 mm 2 mps 755 mmHg 91%
    02:00 +27°C° 0 mm 2 mps 755 mmHg 92%
    03:00 +26°C° 0 mm 2 mps 754 mmHg 92%
    04:00 +26°C° 0 mm 2 mps 754 mmHg 93%
    05:00 +26°C° 0 mm 2 mps 754 mmHg 93%
    06:00 +26°C° 0 mm 1 mps 754 mmHg 94%
    07:00 +28°C° 0 mm 2 mps 755 mmHg 86%
    08:00 +29°C° 0 mm 2 mps 755 mmHg 78%
    09:00 +31°C° 0 mm 2 mps 756 mmHg 70%
    10:00 +32°C° 0 mm 2 mps 756 mmHg 65%
    11:00 +34°C° 0 mm 2 mps 755 mmHg 60%
    12:00 +35°C° 0 mm 2 mps 755 mmHg 55%
    13:00 +35°C° 0 mm 3 mps 754 mmHg 56%
    14:00 +35°C° 0 mm 3 mps 754 mmHg 57%
    15:00 +35°C° 0 mm 3 mps 753 mmHg 58%
    16:00 +33°C° 0 mm 3 mps 753 mmHg 65%
    17:00 +31°C° 0 mm 2 mps 753 mmHg 72%
    18:00 +29°C° 0 mm 2 mps 753 mmHg 79%
    19:00 +29°C° 0 mm 2 mps 754 mmHg 81%
    20:00 +28°C° 0 mm 2 mps 754 mmHg 83%
    21:00 +28°C° 0 mm 2 mps 755 mmHg 86%
    22:00 +28°C° 0 mm 2 mps 755 mmHg 87%
    23:00 +27°C° 0 mm 2 mps 755 mmHg 88%

    Day after tomorrow, 19 November, Monday

    Time Temperature Precipitation Wind Pressure Humidity
    00:00 +27°C° 0 mm 2 mps 755 mmHg 89%
    01:00 +27°C° 0.2 mm 2 mps 755 mmHg 90%
    02:00 +27°C° 0.2 mm 2 mps 754 mmHg 91%
    03:00 +26°C° 0.2 mm 2 mps 754 mmHg 93%
    04:00 +26°C° 0.3 mm 2 mps 754 mmHg 93%
    05:00 +26°C° 0.3 mm 2 mps 754 mmHg 93%
    06:00 +26°C° 0.3 mm 2 mps 754 mmHg 93%
    07:00 +28°C° 0 mm 2 mps 755 mmHg 86%
    08:00 +29°C° 0 mm 2 mps 755 mmHg 79%
    09:00 +31°C° 0 mm 2 mps 756 mmHg 72%
    10:00 +33°C° 0.1 mm 3 mps 755 mmHg 68%
    11:00 +34°C° 0.1 mm 3 mps 755 mmHg 64%
    12:00 +35°C° 0.1 mm 3 mps 754 mmHg 60%
    13:00 +34°C° 0.5 mm 3 mps 754 mmHg 62%
    14:00 +34°C° 0.5 mm 3 mps 753 mmHg 64%
    15:00 +34°C° 0.5 mm 3 mps 752 mmHg 66%
    16:00 +33°C° 0.1 mm 3 mps 752 mmHg 71%
    17:00 +30°C° 0.1 mm 2 mps 753 mmHg 76%
    18:00 +29°C° 0.1 mm 2 mps 753 mmHg 80%
    19:00 +29°C° 0 mm 2 mps 754 mmHg 83%
    20:00 +28°C° 0 mm 2 mps 754 mmHg 85%
    21:00 +28°C° 0 mm 2 mps 755 mmHg 88%
    22:00 +27°C° 0 mm 2 mps 755 mmHg 89%
    23:00 +27°C° 0 mm 2 mps 755 mmHg 89%

    20 November, Tuesday

    Time Temperature Precipitation Wind Pressure Humidity
    00:00 +27°C° 0 mm 3 mps 755 mmHg 90%
    01:00 +27°C° 0.4 mm 3 mps 754 mmHg 91%
    02:00 +27°C° 0.4 mm 3 mps 754 mmHg 92%
    03:00 +26°C° 0.4 mm 3 mps 753 mmHg 94%
    04:00 +26°C° 0 mm 3 mps 753 mmHg 94%
    05:00 +26°C° 0 mm 2 mps 754 mmHg 94%
    06:00 +26°C° 0 mm 2 mps 754 mmHg 94%
    07:00 +28°C° 0.6 mm 2 mps 755 mmHg 88%
    08:00 +29°C° 0.6 mm 2 mps 755 mmHg 82%
    09:00 +30°C° 0.6 mm 2 mps 755 mmHg 76%
    10:00 +32°C° 0.7 mm 2 mps 755 mmHg 71%
    11:00 +34°C° 0.7 mm 2 mps 755 mmHg 66%
    12:00 +35°C° 0.7 mm 2 mps 755 mmHg 60%
    13:00 +34°C° 0.5 mm 2 mps 754 mmHg 62%
    14:00 +34°C° 0.5 mm 3 mps 754 mmHg 63%
    15:00 +34°C° 0.5 mm 3 mps 753 mmHg 65%
    16:00 +33°C° 0.3 mm 3 mps 753 mmHg 70%
    17:00 +30°C° 0.3 mm 2 mps 754 mmHg 75%
    18:00 +29°C° 0.3 mm 2 mps 754 mmHg 80%
    19:00 +29°C° 0 mm 2 mps 754 mmHg 82%
    20:00 +28°C° 0 mm 2 mps 755 mmHg 84%
    21:00 +28°C° 0 mm 2 mps 756 mmHg 86%
    22:00 +28°C° 0 mm 3 mps 755 mmHg 87%
    23:00 +27°C° 0 mm 3 mps 755 mmHg 88%

    21 November, Wednesday

    Time Temperature Precipitation Wind Pressure Humidity
    00:00 +27°C° 0 mm 3 mps 755 mmHg 89%
    01:00 +27°C° 0 mm 3 mps 754 mmHg 90%
    02:00 +27°C° 0 mm 3 mps 754 mmHg 91%
    03:00 +27°C° 0 mm 3 mps 753 mmHg 92%
    04:00 +27°C° 0.2 mm 3 mps 754 mmHg 93%
    05:00 +27°C° 0.2 mm 3 mps 754 mmHg 93%
    06:00 +26°C° 0.2 mm 3 mps 754 mmHg 94%
    07:00 +28°C° 0.4 mm 3 mps 755 mmHg 89%
    08:00 +29°C° 0.4 mm 3 mps 755 mmHg 84%
    09:00 +30°C° 0.4 mm 3 mps 756 mmHg 79%
    10:00 +31°C° 0.1 mm 3 mps 755 mmHg 73%
    11:00 +34°C° 0.1 mm 3 mps 755 mmHg 67%
    12:00 +35°C° 0.1 mm 3 mps 754 mmHg 61%
    13:00 +34°C° 0.8 mm 3 mps 754 mmHg 66%
    14:00 +33°C° 0.8 mm 3 mps 753 mmHg 70%
    15:00 +32°C° 0.8 mm 4 mps 752 mmHg 75%
    16:00 +31°C° 0.2 mm 3 mps 753 mmHg 78%
    17:00 +30°C° 0.2 mm 3 mps 753 mmHg 82%
    18:00 +29°C° 0.2 mm 3 mps 754 mmHg 85%
    19:00 +28°C° 0 mm 3 mps 754 mmHg 87%
    20:00 +28°C° 0 mm 3 mps 755 mmHg 88%
    21:00 +28°C° 0 mm 3 mps 756 mmHg 90%
    22:00 +27°C° 0.3 mm 3 mps 755 mmHg 91%
    23:00 +27°C° 0.3 mm 3 mps 755 mmHg 91%

    22 November, Thursday

    Time Temperature Precipitation Wind Pressure Humidity
    00:00 +27°C° 0.3 mm 3 mps 755 mmHg 92%
    01:00 +27°C° 0 mm 3 mps 754 mmHg 92%
    02:00 +27°C° 0 mm 3 mps 754 mmHg 92%
    03:00 +27°C° 0 mm 3 mps 753 mmHg 92%
    04:00 +27°C° 0 mm 3 mps 753 mmHg 93%
    05:00 +27°C° 0 mm 3 mps 754 mmHg 93%
    06:00 +26°C° 0 mm 3 mps 754 mmHg 94%
    07:00 +28°C° 0 mm 3 mps 755 mmHg 87%
    08:00 +29°C° 0 mm 3 mps 755 mmHg 81%
    09:00 +31°C° 0 mm 3 mps 756 mmHg 75%
    10:00 +31°C° 0.6 mm 3 mps 755 mmHg 74%
    11:00 +31°C° 0.6 mm 3 mps 755 mmHg 73%
    12:00 +33°C° 0.6 mm 3 mps 754 mmHg 73%
    13:00 +31°C° 0.6 mm 3 mps 754 mmHg 74%
    14:00 +31°C° 0.6 mm 3 mps 753 mmHg 74%
    15:00 +31°C° 0.6 mm 3 mps 753 mmHg 75%
    16:00 +30°C° 0.2 mm 3 mps 753 mmHg 79%
    17:00 +29°C° 0.2 mm 2 mps 753 mmHg 83%
    18:00 +28°C° 0.2 mm 2 mps 754 mmHg 87%
    19:00 +28°C° 0.2 mm 2 mps 754 mmHg 88%
    20:00 +28°C° 0.2 mm 2 mps 755 mmHg 90%
    21:00 +27°C° 0.2 mm 2 mps 755 mmHg 91%
    22:00 +27°C° 0.3 mm 1 mps 755 mmHg 92%
    23:00 +27°C° 0.3 mm 1 mps 754 mmHg 93%
    Show more